• en Suisse
  • Liste des pays
  • À 7 jours
  • Température de l'eau
  • Carte satellitaire
  • Carte météo
  • Widgets météo
  • user-avatar
    Se connecter

    Météo par heure à Francistown

    Ce jour, 14 Novembre, Mercredi

    Heure Température Précipitation Vent Pression Humidité
    00:00 +25°C° 0 mm 3 m/s 677 mmHg 34%
    01:00 +24°C° 0 mm 3 m/s 677 mmHg 35%
    02:00 +22°C° 0 mm 3 m/s 677 mmHg 35%
    03:00 +21°C° 0 mm 3 m/s 676 mmHg 35%
    04:00 +21°C° 0 mm 3 m/s 676 mmHg 36%
    05:00 +20°C° 0 mm 3 m/s 676 mmHg 37%
    06:00 +22°C° 0 mm 4 m/s 677 mmHg 33%
    07:00 +25°C° 0 mm 4 m/s 678 mmHg 29%
    08:00 +27°C° 0 mm 5 m/s 678 mmHg 25%
    09:00 +29°C° 0 mm 6 m/s 678 mmHg 22%
    10:00 +32°C° 0 mm 6 m/s 679 mmHg 20%
    11:00 +34°C° 0 mm 6 m/s 679 mmHg 18%
    12:00 +35°C° 0 mm 6 m/s 678 mmHg 17%
    13:00 +36°C° 0 mm 6 m/s 678 mmHg 16%
    14:00 +36°C° 0 mm 7 m/s 677 mmHg 16%
    15:00 +36°C° 0 mm 7 m/s 677 mmHg 16%
    16:00 +35°C° 0 mm 7 m/s 677 mmHg 17%
    17:00 +35°C° 0 mm 7 m/s 676 mmHg 18%
    18:00 +33°C° 0 mm 6 m/s 676 mmHg 21%
    19:00 +30°C° 0 mm 5 m/s 677 mmHg 23%
    20:00 +28°C° 0 mm 5 m/s 677 mmHg 26%
    21:00 +27°C° 0 mm 4 m/s 677 mmHg 27%
    22:00 +26°C° 0 mm 4 m/s 677 mmHg 28%
    23:00 +26°C° 0 mm 4 m/s 678 mmHg 30%

    Demain, 15 Novembre, Jeudi

    Heure Température Précipitation Vent Pression Humidité
    00:00 +25°C° 0 mm 4 m/s 677 mmHg 32%
    01:00 +24°C° 0 mm 3 m/s 677 mmHg 33%
    02:00 +22°C° 0 mm 3 m/s 677 mmHg 35%
    03:00 +21°C° 0 mm 3 m/s 677 mmHg 37%
    04:00 +20°C° 0 mm 3 m/s 677 mmHg 38%
    05:00 +20°C° 0 mm 3 m/s 677 mmHg 40%
    06:00 +22°C° 0 mm 4 m/s 677 mmHg 35%
    07:00 +25°C° 0 mm 5 m/s 678 mmHg 31%
    08:00 +27°C° 0 mm 6 m/s 679 mmHg 26%
    09:00 +29°C° 0 mm 6 m/s 679 mmHg 22%
    10:00 +32°C° 0 mm 6 m/s 679 mmHg 18%
    11:00 +34°C° 0 mm 6 m/s 679 mmHg 14%
    12:00 +35°C° 0 mm 6 m/s 679 mmHg 13%
    13:00 +36°C° 0 mm 6 m/s 678 mmHg 11%
    14:00 +38°C° 0 mm 6 m/s 678 mmHg 10%
    15:00 +38°C° 0 mm 6 m/s 677 mmHg 11%
    16:00 +36°C° 0 mm 6 m/s 677 mmHg 12%
    17:00 +36°C° 0 mm 7 m/s 676 mmHg 13%
    18:00 +34°C° 0 mm 6 m/s 677 mmHg 17%
    19:00 +32°C° 0 mm 5 m/s 677 mmHg 20%
    20:00 +29°C° 0 mm 4 m/s 677 mmHg 24%
    21:00 +28°C° 0 mm 4 m/s 677 mmHg 26%
    22:00 +27°C° 0 mm 4 m/s 678 mmHg 28%
    23:00 +26°C° 0 mm 4 m/s 678 mmHg 30%

    Après-demain, 16 Novembre, Vendredi

    Heure Température Précipitation Vent Pression Humidité
    00:00 +26°C° 0 mm 4 m/s 677 mmHg 31%
    01:00 +25°C° 0 mm 4 m/s 677 mmHg 33%
    02:00 +24°C° 0 mm 3 m/s 677 mmHg 35%
    03:00 +22°C° 0 mm 3 m/s 677 mmHg 39%
    04:00 +21°C° 0 mm 3 m/s 677 mmHg 43%
    05:00 +20°C° 0 mm 3 m/s 677 mmHg 47%
    06:00 +23°C° 0 mm 4 m/s 678 mmHg 43%
    07:00 +26°C° 0 mm 4 m/s 679 mmHg 39%
    08:00 +28°C° 0 mm 5 m/s 679 mmHg 35%
    09:00 +30°C° 0 mm 5 m/s 680 mmHg 28%
    10:00 +33°C° 0 mm 5 m/s 680 mmHg 22%
    11:00 +35°C° 0 mm 4 m/s 680 mmHg 15%
    12:00 +36°C° 0 mm 4 m/s 679 mmHg 14%
    13:00 +39°C° 0 mm 5 m/s 679 mmHg 12%
    14:00 +40°C° 0 mm 5 m/s 678 mmHg 10%
    15:00 +39°C° 0 mm 5 m/s 678 mmHg 11%
    16:00 +39°C° 0 mm 6 m/s 677 mmHg 12%
    17:00 +38°C° 0 mm 6 m/s 677 mmHg 14%
    18:00 +35°C° 0 mm 6 m/s 677 mmHg 16%
    19:00 +33°C° 0 mm 5 m/s 677 mmHg 19%
    20:00 +30°C° 0 mm 5 m/s 678 mmHg 21%
    21:00 +30°C° 0 mm 5 m/s 678 mmHg 23%
    22:00 +29°C° 0 mm 5 m/s 678 mmHg 24%
    23:00 +28°C° 0 mm 5 m/s 678 mmHg 25%

    17 Novembre, Samedi

    Heure Température Précipitation Vent Pression Humidité
    00:00 +27°C° 0 mm 4 m/s 678 mmHg 26%
    01:00 +26°C° 0 mm 4 m/s 677 mmHg 28%
    02:00 +25°C° 0 mm 4 m/s 676 mmHg 29%
    03:00 +24°C° 0 mm 3 m/s 676 mmHg 32%
    04:00 +24°C° 0 mm 3 m/s 677 mmHg 35%
    05:00 +22°C° 0 mm 3 m/s 677 mmHg 37%
    06:00 +25°C° 0 mm 3 m/s 677 mmHg 34%
    07:00 +28°C° 0 mm 4 m/s 678 mmHg 31%
    08:00 +30°C° 0 mm 4 m/s 679 mmHg 28%
    09:00 +33°C° 0 mm 3 m/s 679 mmHg 24%
    10:00 +35°C° 0 mm 3 m/s 679 mmHg 20%
    11:00 +37°C° 0 mm 2 m/s 679 mmHg 17%
    12:00 +38°C° 0 mm 2 m/s 678 mmHg 15%
    13:00 +39°C° 0 mm 3 m/s 677 mmHg 13%
    14:00 +39°C° 0 mm 3 m/s 677 mmHg 11%
    15:00 +40°C° 0 mm 4 m/s 676 mmHg 11%
    16:00 +40°C° 0 mm 4 m/s 676 mmHg 11%
    17:00 +40°C° 0 mm 5 m/s 676 mmHg 10%
    18:00 +37°C° 0 mm 5 m/s 676 mmHg 13%
    19:00 +35°C° 0 mm 4 m/s 676 mmHg 15%
    20:00 +33°C° 0 mm 4 m/s 676 mmHg 17%
    21:00 +32°C° 0 mm 4 m/s 676 mmHg 18%
    22:00 +30°C° 0 mm 4 m/s 677 mmHg 19%
    23:00 +29°C° 0 mm 4 m/s 677 mmHg 21%

    18 Novembre, Dimanche

    Heure Température Précipitation Vent Pression Humidité
    00:00 +28°C° 0 mm 4 m/s 676 mmHg 22%
    01:00 +28°C° 0 mm 3 m/s 676 mmHg 24%
    02:00 +27°C° 0 mm 3 m/s 676 mmHg 26%
    03:00 +26°C° 0 mm 3 m/s 676 mmHg 27%
    04:00 +26°C° 0 mm 4 m/s 676 mmHg 29%
    05:00 +25°C° 0 mm 4 m/s 676 mmHg 30%
    06:00 +27°C° 0 mm 5 m/s 677 mmHg 31%
    07:00 +28°C° 0 mm 6 m/s 678 mmHg 31%
    08:00 +31°C° 0 mm 8 m/s 679 mmHg 31%
    09:00 +33°C° 0 mm 7 m/s 679 mmHg 28%
    10:00 +35°C° 0 mm 7 m/s 679 mmHg 25%
    11:00 +38°C° 0 mm 6 m/s 679 mmHg 22%
    12:00 +39°C° 0 mm 6 m/s 678 mmHg 20%
    13:00 +40°C° 0 mm 6 m/s 677 mmHg 17%
    14:00 +41°C° 0 mm 5 m/s 677 mmHg 14%
    15:00 +40°C° 0 mm 6 m/s 676 mmHg 15%
    16:00 +40°C° 0 mm 6 m/s 676 mmHg 16%
    17:00 +39°C° 0 mm 7 m/s 676 mmHg 17%
    18:00 +36°C° 0 mm 7 m/s 676 mmHg 22%
    19:00 +34°C° 0 mm 6 m/s 676 mmHg 26%
    20:00 +32°C° 0 mm 6 m/s 676 mmHg 31%
    21:00 +30°C° 0 mm 6 m/s 677 mmHg 34%
    22:00 +29°C° 0 mm 7 m/s 677 mmHg 37%
    23:00 +28°C° 0 mm 7 m/s 678 mmHg 39%

    19 Novembre, Lundi

    Heure Température Précipitation Vent Pression Humidité
    00:00 +27°C° 0 mm 7 m/s 677 mmHg 45%
    01:00 +26°C° 0 mm 7 m/s 677 mmHg 51%
    02:00 +24°C° 0 mm 7 m/s 677 mmHg 57%
    03:00 +23°C° 0 mm 8 m/s 677 mmHg 61%
    04:00 +23°C° 0 mm 8 m/s 678 mmHg 66%
    05:00 +22°C° 0 mm 8 m/s 678 mmHg 71%
    06:00 +23°C° 0 mm 8 m/s 678 mmHg 67%
    07:00 +24°C° 0 mm 8 m/s 679 mmHg 63%
    08:00 +26°C° 0 mm 7 m/s 679 mmHg 60%
    09:00 +28°C° 0 mm 7 m/s 679 mmHg 51%
    10:00 +32°C° 0 mm 6 m/s 679 mmHg 43%
    11:00 +34°C° 0 mm 6 m/s 679 mmHg 34%
    12:00 +35°C° 0 mm 6 m/s 679 mmHg 30%
    13:00 +36°C° 0 mm 5 m/s 678 mmHg 25%
    14:00 +39°C° 0 mm 5 m/s 677 mmHg 21%
    15:00 +37°C° 0 mm 5 m/s 677 mmHg 21%
    16:00 +38°C° 0 mm 6 m/s 676 mmHg 22%
    17:00 +36°C° 0 mm 6 m/s 676 mmHg 23%
    18:00 +34°C° 0 mm 6 m/s 676 mmHg 27%
    19:00 +32°C° 0 mm 6 m/s 676 mmHg 31%
    20:00 +30°C° 0 mm 5 m/s 677 mmHg 34%
    21:00 +29°C° 0 mm 5 m/s 677 mmHg 38%
    22:00 +28°C° 0 mm 5 m/s 677 mmHg 41%
    23:00 +27°C° 0 mm 4 m/s 677 mmHg 44%
    Voir plus